{"data":{"norad_id":64357,"epoch":"2026-05-24T21:43:21.550656Z","epoch_age_seconds":76509,"freshness":"FRESH","line1":"1 64357U 25126P   26144.90511054  .00002437  00000+0  21194-3 0  9998","line2":"2 64357  70.0002 202.4688 0003496 269.5640  90.5119 14.98335448 52090","mean_motion":14.98335448,"eccentricity":0.0003496,"inclination_deg":70.0002,"raan_deg":202.4688,"arg_perigee_deg":269.564,"mean_anomaly_deg":90.5119,"bstar":0.00021194,"rev_number":5209,"period_min":96.106649677289,"perigee_km":569.60926196006,"apogee_km":574.46882504968,"semimajor_km":6950.1760435049,"source":"CELESTRAK","updated_at":"2026-05-25T13:38:20.403890Z"}}